Location: Brno
(49.2000°N, 16.6330°E)
Time: 20:22:13
(UTC+02:00)

Explorer 11/Cluster Stage 4 - Pass Details

Date: 31 July 2021
Orbit: 467 x 1257 km, 28.8° (Epoch: 17 September)

Event Time Altitude Azimuth Distance (km) Brightness Sun altitude
Rises 10:18:05 0° 214° (SSW) 4,159 10.3 45.1°
Reaches altitude 10° 10:23:07 10° 188° (S) 3,224 10.1 45.8°
Maximum altitude 10:26:14 13° 165° (SSE) 3,016 10.2 46.3°
Drops below altitude 10° 10:29:19 10° 143° (SE) 3,181 10.6 46.7°
Sets 10:34:12 0° 117° (ESE) 4,048 10.9 47.4°
